Temperature
11 11 10 10 10 10 9 9 8 8 7 7 7 6 6 6 6 5 5 5 5 5 4 4 4 4 4 4 4 4 4 4 4 4 4 4 4 4 4 4 3 3 3
10 10 9 9 9 8 8 8 7 7 6 6 6 6 5 5 5 5 4 4 4 4 4 3 3 3 3 3 3 3 3 3 3 3 3 3 3 3 3 3 3 3 3
9 8 8 8 8 7 7 7 6 6 6 5 5 5 5 4 4 4 3 3 3 3 3 3 3 3 3 3 3 3 3 3 3 2 2 3 3 3 3 3 2 2 2
8 8 7 7 7 6 6 6 5 5 5 5 4 4 4 4 3 3 3 3 2 2 2 2 2 2 2 2 2 2 2 2 2 2 2 2 2 2 2 2 2 2 2
7 7 6 6 6 6 5 5 5 5 4 4 4 3 3 3 3 3 3 2 2 2 2 2 2 2 2 2 2 2 2 2 2 1 2 2 2 2 2 2 1 1 2
6 6 6 5 5 5 5 4 4 4 3 3 3 3 2 2 2 2 2 2 2 2 2 2 2 2 2 2 2 2 1 1 1 1 1 1 2 2 1 1 1 1 1
6 5 5 5 5 4 4 4 3 3 3 3 2 2 2 2 2 1 1 1 1 1 1 1 2 2 2 2 2 2 2 2 1 1 1 1 1 1 1 1 1 1 1
5 5 5 4 4 4 3 3 3 3 2 2 2 2 1 1 1 1 1 1 1 1 1 1 1 1 1 1 1 2 2 1 1 1 1 1 1 1 1 1 0 0 1
5 5 4 4 4 3 3 3 3 2 2 2 2 1 1 1 1 1 0 0 0 0 1 1 1 1 1 1 1 1 2 2 1 1 1 1 1 1 1 1 1 0 1
4 4 4 4 3 3 3 3 2 2 2 2 2 1 1 1 1 0 0 0 -0 -0 0 1 1 1 1 1 1 1 1 1 1 2 1 1 1 1 1 1 0 0 0
4 4 4 3 3 3 3 3 2 2 2 2 1 1 1 1 0 -0 -0 -0 -1 -0 0 1 1 1 1 1 1 1 1 1 1 1 1 1 1 1 1 1 1 0 0
4 4 4 3 3 3 3 3 2 2 2 2 1 1 1 0 0 -0 -0 -1 -1 -0 0 0 1 1 1 1 1 1 1 1 1 1 1 1 1 1 1 1 1 0 0
4 4 4 4 3 3 3 3 3 2 2 2 1 1 0 0 -0 -0 -0 -1 -0 -0 0 1 1 1 2 2 2 2 1 1 1 1 1 1 1 1 1 1 1 1 1
4 4 4 4 3 3 3 3 2 2 2 1 1 0 0 -0 -0 -0 -0 -0 -0 0 0 1 1 1 2 2 2 2 2 2 1 1 1 1 1 1 1 1 1 1 1
4 4 4 4 4 3 3 3 2 2 1 1 1 0 -0 -0 -1 -1 -0 -0 -0 0 1 1 2 2 2 2 2 2 2 2 2 1 1 1 1 1 1 1 1 0 0
4 4 5 4 4 4 3 3 2 2 1 1 0 -0 -0 -1 -1 -0 -0 -0 0 0 1 1 1 2 2 2 2 2 2 2 2 1 1 1 1 1 1 1 1 0 0
4 4 5 4 4 4 3 3 2 2 1 1 0 -0 -0 -0 -0 -0 -0 0 0 1 1 1 2 2 2 2 2 2 2 2 2 2 2 1 1 1 1 1 1 1 0
5 5 4 4 4 4 4 3 3 2 1 1 0 -0 -0 -0 -0 -0 0 0 1 1 1 2 2 2 2 2 2 2 2 2 2 2 2 2 2 1 1 1 1 1 1
5 5 4 5 4 4 4 3 3 2 1 1 0 -0 -0 -0 -0 0 0 1 1 1 1 2 2 2 2 3 3 3 3 3 2 2 2 2 2 2 2 1 1 1 1
5 5 5 5 5 4 4 3 3 2 1 1 0 0 0 0 0 0 1 1 1 1 2 2 2 2 3 3 3 3 3 3 3 3 3 3 3 2 2 2 2 2 2
5 5 5 5 4 4 3 3 2 2 1 1 1 0 0 0 0 0 1 1 1 2 2 2 2 3 3 3 3 3 3 3 3 3 3 3 3 3 3 3 3 2 2
6 6 5 5 4 4 3 3 2 2 1 1 1 0 0 0 1 1 1 1 2 2 2 2 2 3 3 3 3 3 3 3 3 3 3 4 4 4 3 3 3 3 3
6 6 5 5 4 4 3 3 2 2 1 1 1 1 1 1 1 1 1 2 2 2 2 2 3 3 3 3 3 3 3 3 4 4 4 4 4 4 4 4 4 4 4
6 6 6 5 5 4 4 3 2 2 2 1 1 1 1 1 1 1 1 2 2 2 2 2 3 3 3 3 3 3 4 4 4 4 4 4 4 4 4 4 4 4 4
6 6 6 5 5 4 4 3 2 2 2 1 1 1 1 1 1 1 2 2 2 2 2 2 3 3 3 3 3 4 4 4 4 4 4 4 4 4 4 4 4 4 4
6 6 6 5 4 4 3 3 2 2 2 1 1 1 1 1 1 1 2 2 2 2 2 2 3 3 3 3 3 4 4 4 4 4 4 4 4 4 4 4 4 5 5
Wind_Speed
14 14 13 12 12 12 11 11 9 8 7 7 6 6 5 5 4 4 4 4 5 5 5 6 6 6 5 5 6 6 6 6 8 8 7 7 8 8 10 14 17 17 18
13 13 13 12 12 11 11 9 8 7 6 6 5 5 5 5 4 5 6 6 6 6 6 6 7 7 7 6 5 7 7 7 8 10 8 8 9 9 9 9 12 16 15
13 13 12 11 11 10 9 8 8 7 6 5 5 5 5 5 6 7 8 7 7 6 6 7 7 7 7 6 6 7 6 8 7 8 10 8 8 9 9 10 10 8 15
12 12 12 11 10 9 9 7 7 6 6 5 5 5 6 7 10 10 10 9 8 8 7 7 7 7 7 6 7 7 7 8 8 9 9 8 8 8 8 8 9 8 9
12 11 10 9 9 8 8 7 6 6 6 5 5 6 6 7 9 9 9 10 10 9 8 8 8 9 9 6 7 7 8 8 9 10 10 10 10 8 8 8 10 9 9
10 10 9 8 8 7 7 6 6 6 6 6 6 6 7 7 8 10 9 9 10 10 9 8 9 8 7 7 8 10 11 11 11 11 11 11 12 10 9 9 9 10 8
9 8 8 7 7 7 7 7 6 5 5 5 5 5 5 6 7 7 11 10 10 9 8 8 9 10 7 7 10 13 13 15 14 11 11 12 11 10 10 10 10 10 11
7 7 7 7 7 6 5 5 4 4 4 4 4 5 4 5 4 6 12 10 9 7 8 8 8 8 5 7 11 12 11 11 12 10 8 9 10 9 9 10 11 10 10
7 6 6 6 5 4 4 4 4 3 3 4 4 4 4 3 1 4 9 10 8 8 9 9 8 7 6 9 11 12 13 11 14 16 15 15 17 16 11 7 8 8 9
6 6 6 5 4 4 4 4 3 3 3 4 4 4 4 2 2 2 8 8 9 9 9 8 6 5 9 11 10 11 12 12 12 14 12 13 10 9 9 6 7 8 7
5 5 4 3 2 3 3 3 3 3 3 3 4 3 3 3 1 2 6 7 9 10 10 9 7 8 12 14 12 10 12 13 12 11 10 8 7 5 5 5 5 5 7
3 3 2 2 3 3 2 2 2 3 3 3 3 4 3 3 2 2 7 9 9 10 10 8 9 15 17 17 13 12 15 13 8 8 7 6 6 5 6 6 7 6 6
2 2 1 1 2 2 2 2 2 3 4 4 4 5 5 4 3 6 9 12 12 9 9 12 15 17 16 12 11 13 11 7 6 6 6 5 5 5 6 5 6 6 6
1 0 0 0 0 1 1 3 4 5 6 6 6 6 6 5 6 8 9 10 11 10 10 13 15 14 10 9 9 7 5 5 5 5 5 5 5 5 5 5 5 6 5
2 2 2 1 0 1 3 4 5 6 5 5 6 7 7 7 8 9 8 8 9 10 11 9 8 7 7 7 7 6 5 5 5 5 4 5 5 5 5 5 5 5 5
2 3 3 2 1 2 4 4 7 6 6 5 3 4 5 6 9 11 12 13 14 13 9 7 8 8 8 8 8 7 6 5 5 5 5 5 5 4 5 5 5 5 5
2 3 4 4 3 3 2 2 3 4 3 2 2 4 6 9 10 11 13 14 14 11 6 6 7 8 7 7 7 6 6 5 4 4 4 4 4 4 4 5 5 5 5
2 1 3 3 2 2 2 3 3 2 2 1 3 5 6 8 9 11 12 11 7 7 6 6 7 8 7 7 6 6 5 5 5 4 4 4 4 4 4 4 4 5 5
4 2 2 3 2 2 3 3 4 4 4 3 2 1 4 7 7 8 9 6 7 7 7 7 7 7 7 7 6 6 5 5 5 4 4 4 4 3 4 4 3 5 4
0 1 3 4 2 3 3 4 4 4 4 4 4 5 5 5 5 6 6 6 6 7 8 8 8 8 7 7 6 6 6 6 6 5 4 4 3 3 4 4 4 3 3
2 4 3 2 4 5 5 5 4 4 4 4 3 4 4 4 5 6 6 6 7 7 7 8 8 8 7 7 7 7 7 7 7 7 6 5 4 4 3 4 3 3 3
3 2 3 5 5 5 4 4 4 4 4 4 3 2 3 3 4 5 6 6 6 6 5 6 7 7 7 7 7 7 8 8 8 8 8 6 5 5 4 4 4 4 3
3 3 4 4 4 3 1 4 4 4 5 4 4 4 4 4 5 5 6 6 6 6 8 8 5 6 10 12 11 8 9 9 9 9 9 7 6 5 5 5 5 5 6
3 4 4 4 3 4 5 5 5 5 5 5 5 4 4 4 4 5 6 6 6 7 9 10 10 12 14 15 14 14 13 13 12 11 10 8 6 6 6 6 6 6 5
4 4 4 5 5 5 5 6 6 5 5 5 4 4 4 4 5 5 5 6 7 7 10 11 13 14 17 17 17 17 20 21 18 14 11 7 7 8 7 7 6 7 7
6 5 5 6 5 5 5 6 5 5 5 5 4 4 4 5 5 6 6 6 6 7 10 12 16 18 19 18 20 23 25 25 24 21 13 8 7 9 8 6 8 7 8
Wind_Direction
80 82 84 84 85 86 86 85 86 88 88 88 86 82 78 68 51 26 2 9 10 2 346 347 345 331 322 327 319 311 311 316 310 309 312 316 316 305 302 297 294 289 286
86 85 85 86 87 87 89 90 89 86 84 83 80 72 61 56 41 24 8 10 1 353 348 339 331 327 332 319 318 317 315 311 301 303 305 302 299 299 290 286 295 296 298
89 88 85 85 85 86 85 85 83 80 74 70 67 59 45 38 35 27 14 2 354 344 336 327 322 317 312 317 318 310 307 308 308 303 300 297 296 296 297 297 296 295 298
87 86 82 80 81 82 81 77 75 76 74 58 50 47 43 43 39 26 9 349 344 335 325 317 312 311 312 322 314 308 315 319 309 302 299 300 300 299 304 305 304 299 299
87 87 86 86 84 81 76 69 61 52 56 46 41 37 39 57 43 28 360 346 339 326 320 318 314 312 306 296 300 314 313 306 305 302 302 305 304 308 307 306 303 302 292
88 88 86 85 84 83 80 70 61 50 41 34 34 29 32 57 60 35 4 339 324 315 318 324 317 310 336 319 304 301 291 291 294 296 298 297 299 302 305 306 304 303 299
87 88 87 84 78 71 69 65 56 45 35 27 23 23 62 86 56 20 354 328 311 312 321 322 323 328 351 353 333 317 305 297 289 288 289 291 297 301 306 307 304 302 299
90 89 88 86 79 71 63 57 50 40 25 16 16 16 49 96 60 6 342 323 315 323 323 317 317 323 14 353 328 317 308 308 305 301 289 292 299 303 303 300 297 296 293
88 84 80 78 74 64 54 46 42 23 12 1 19 13 26 104 104 355 347 328 329 332 324 321 323 327 7 343 326 315 313 312 315 319 311 301 296 293 291 295 297 300 303
87 80 72 65 59 54 44 34 29 7 6 2 17 7 359 37 153 339 341 336 336 332 323 323 333 336 332 325 322 314 309 312 319 319 314 311 306 302 299 283 289 298 304
93 89 80 66 46 69 47 26 6 357 358 356 360 359 2 10 154 238 315 333 336 327 322 324 325 327 321 316 312 299 294 304 309 305 306 310 314 315 315 308 295 291 299
97 88 79 41 10 50 26 6 346 341 343 352 354 352 358 23 31 323 310 311 311 316 316 320 323 322 315 310 306 294 298 304 299 302 311 319 324 326 324 320 317 312 298
84 71 62 47 31 23 355 356 2 10 5 2 1 357 1 8 12 350 338 328 322 317 318 320 315 309 309 306 303 303 303 301 307 317 324 324 322 320 321 323 330 331 330
61 344 257 159 325 70 17 17 33 26 14 3 7 4 360 2 14 360 346 337 337 333 334 322 312 306 307 304 310 315 315 316 317 321 327 328 335 341 343 344 344 343 342
351 327 326 349 315 144 98 54 52 68 54 22 12 1 359 356 355 337 329 327 326 320 322 314 321 332 338 341 340 338 334 335 333 336 343 346 350 351 351 350 352 352 353
344 334 330 340 9 38 115 121 73 96 117 91 46 1 356 1 330 326 324 320 314 313 320 323 329 335 339 338 336 338 342 348 349 350 358 358 355 354 354 356 1 3 2
343 344 334 348 12 30 48 111 135 138 167 182 280 316 321 323 323 324 325 323 313 314 320 327 332 334 333 333 337 342 346 350 352 358 3 1 357 0 2 3 7 5 8
337 56 309 327 349 17 25 34 60 89 119 153 218 261 308 322 322 322 325 328 334 342 339 335 334 334 335 337 342 346 351 355 1 7 3 3 2 4 4 4 11 9 6
328 7 332 324 351 40 44 43 54 53 52 57 56 356 327 325 314 316 327 341 342 343 343 342 339 336 338 341 348 354 359 2 6 6 7 8 3 5 4 6 13 9 7
217 71 317 327 28 60 56 49 55 56 53 46 36 21 1 349 348 348 350 346 344 345 344 342 338 337 341 346 352 359 7 11 9 6 3 4 4 7 10 10 14 14 9
145 159 212 301 48 57 51 52 51 53 58 47 45 36 352 344 346 348 346 342 343 341 338 336 335 341 348 351 357 6 14 12 7 360 1 0 3 8 8 6 9 20 21
351 83 77 61 65 55 42 58 58 59 62 52 42 46 358 346 350 346 344 342 338 330 325 328 340 349 354 355 1 10 13 10 2 354 352 356 360 0 3 9 10 16 27
311 58 85 82 91 125 96 68 64 65 66 58 43 34 27 8 354 350 347 341 333 333 341 344 348 1 8 6 14 23 14 359 343 338 342 346 356 2 3 5 16 27 28
46 53 74 84 74 82 77 74 71 67 67 63 53 39 25 8 356 352 347 341 341 348 356 4 13 19 24 21 16 16 7 352 340 333 330 334 355 11 12 10 13 22 32
44 35 57 75 64 71 78 76 72 70 67 66 57 39 22 15 9 4 356 354 359 6 15 24 29 24 21 23 17 8 0 0 359 351 335 339 9 15 16 17 18 22 26
50 36 57 77 71 65 77 81 77 72 69 67 62 48 33 26 21 15 10 7 7 14 20 27 36 32 22 14 9 8 9 6 3 1 357 1 21 25 15 17 24 29 33
Height
1511 1513 1515 1517 1519 1521 1523 1525 1526 1527 1528 1529 1530 1531 1531 1531 1531 1531 1531 1531 1530 1530 1529 1528 1527 1526 1525 1523 1522 1521 1519 1517 1513 1510 1509 1506 1504 1501 1498 1495 1491 1488 1485
1516 1518 1519 1521 1522 1524 1525 1527 1528 1529 1530 1531 1531 1531 1531 1531 1531 1531 1530 1530 1529 1528 1527 1526 1525 1523 1522 1520 1518 1517 1515 1513 1510 1506 1503 1501 1498 1495 1491 1488 1485 1482 1479
1521 1522 1523 1524 1526 1527 1528 1529 1530 1531 1531 1532 1532 1532 1531 1531 1531 1530 1529 1528 1527 1526 1525 1523 1522 1520 1519 1517 1515 1513 1511 1509 1506 1502 1498 1496 1492 1489 1486 1482 1479 1475 1472
1525 1526 1527 1528 1529 1529 1530 1531 1532 1532 1532 1532 1532 1532 1531 1530 1529 1528 1527 1526 1525 1523 1522 1521 1519 1518 1516 1514 1512 1510 1507 1505 1502 1498 1494 1490 1487 1484 1481 1477 1472 1469 1465
1528 1529 1530 1531 1531 1531 1532 1532 1532 1533 1533 1533 1532 1532 1531 1529 1528 1527 1525 1523 1521 1520 1519 1518 1516 1515 1513 1510 1508 1506 1503 1500 1497 1494 1490 1486 1482 1479 1476 1471 1466 1462 1458
1531 1532 1533 1533 1533 1533 1533 1533 1533 1533 1533 1533 1532 1531 1530 1528 1527 1525 1523 1521 1519 1517 1517 1515 1514 1512 1510 1507 1505 1502 1500 1497 1493 1490 1485 1482 1478 1474 1470 1466 1461 1456 1451
1533 1534 1535 1535 1535 1535 1535 1534 1534 1534 1534 1533 1532 1531 1529 1528 1526 1524 1521 1518 1517 1515 1514 1513 1511 1509 1506 1504 1501 1498 1496 1493 1490 1486 1481 1477 1473 1470 1465 1461 1456 1452 1447
1535 1536 1537 1537 1537 1537 1536 1535 1535 1534 1534 1533 1532 1531 1529 1527 1525 1523 1520 1517 1515 1514 1512 1510 1509 1506 1503 1501 1497 1494 1490 1488 1485 1481 1478 1473 1470 1465 1461 1457 1452 1447 1443
1537 1538 1538 1539 1538 1538 1537 1536 1535 1535 1534 1533 1531 1530 1528 1526 1524 1521 1518 1515 1513 1512 1510 1508 1506 1504 1501 1498 1494 1490 1486 1483 1481 1477 1473 1469 1465 1461 1457 1452 1448 1444 1439
1539 1540 1540 1540 1539 1539 1538 1537 1536 1535 1534 1533 1531 1529 1527 1525 1523 1520 1517 1514 1511 1509 1507 1506 1504 1502 1499 1495 1491 1488 1484 1480 1476 1472 1469 1465 1461 1457 1453 1449 1445 1441 1437
1541 1541 1541 1541 1540 1539 1538 1537 1536 1535 1534 1532 1531 1529 1527 1525 1522 1519 1516 1513 1510 1507 1506 1504 1502 1499 1496 1493 1490 1486 1482 1478 1474 1470 1466 1462 1458 1454 1451 1447 1443 1440 1436
1542 1542 1542 1541 1541 1540 1539 1537 1536 1535 1534 1532 1530 1528 1526 1524 1521 1518 1515 1512 1509 1507 1505 1503 1500 1497 1494 1491 1487 1484 1480 1477 1472 1468 1465 1461 1457 1453 1449 1446 1442 1439 1435
1543 1543 1543 1542 1541 1540 1539 1538 1537 1535 1534 1532 1530 1528 1525 1523 1520 1517 1514 1511 1509 1506 1504 1501 1499 1496 1493 1489 1486 1482 1479 1475 1471 1467 1464 1460 1456 1453 1449 1445 1442 1438 1435
1544 1543 1543 1542 1541 1540 1539 1538 1537 1535 1533 1531 1529 1527 1525 1522 1519 1516 1513 1510 1508 1505 1503 1500 1498 1495 1492 1489 1485 1482 1478 1474 1471 1467 1463 1460 1457 1453 1449 1446 1442 1438 1434
1544 1543 1543 1541 1540 1539 1538 1537 1536 1534 1533 1531 1528 1526 1523 1521 1518 1515 1512 1510 1507 1505 1503 1500 1498 1495 1492 1489 1485 1481 1478 1474 1471 1467 1464 1460 1457 1454 1450 1447 1444 1440 1436
1544 1543 1542 1541 1540 1539 1538 1536 1535 1534 1532 1530 1528 1525 1523 1521 1518 1515 1513 1511 1508 1506 1504 1501 1498 1496 1493 1489 1486 1482 1479 1475 1472 1468 1465 1462 1459 1455 1452 1449 1446 1442 1438
1544 1543 1542 1541 1540 1539 1538 1537 1535 1533 1532 1530 1528 1525 1523 1520 1518 1516 1514 1512 1510 1507 1505 1502 1500 1497 1494 1491 1487 1484 1480 1477 1473 1470 1467 1464 1461 1458 1455 1451 1448 1445 1441
1544 1542 1541 1541 1540 1539 1538 1537 1535 1534 1532 1530 1528 1526 1523 1521 1519 1517 1515 1513 1511 1509 1506 1504 1501 1499 1496 1493 1490 1486 1483 1479 1476 1473 1469 1466 1463 1460 1457 1454 1451 1448 1444
1543 1542 1541 1540 1540 1539 1538 1537 1536 1534 1533 1531 1529 1527 1525 1522 1520 1518 1516 1514 1512 1510 1508 1506 1503 1501 1498 1495 1492 1489 1485 1482 1479 1476 1473 1470 1467 1464 1461 1458 1454 1451 1448
1541 1541 1540 1540 1539 1539 1538 1537 1536 1535 1534 1532 1530 1528 1526 1523 1521 1519 1517 1516 1514 1512 1510 1507 1505 1503 1500 1497 1494 1491 1488 1485 1482 1479 1476 1473 1470 1467 1464 1461 1458 1455 1452
1541 1540 1540 1540 1540 1539 1539 1538 1537 1536 1534 1533 1531 1529 1527 1525 1523 1521 1519 1518 1516 1514 1512 1509 1507 1505 1502 1500 1497 1494 1491 1488 1485 1482 1480 1477 1474 1471 1468 1465 1462 1459 1456
1541 1541 1541 1541 1540 1540 1539 1539 1538 1537 1535 1534 1532 1531 1529 1527 1525 1523 1522 1520 1518 1516 1514 1512 1510 1507 1505 1502 1500 1497 1494 1491 1488 1485 1483 1480 1478 1475 1472 1469 1466 1463 1460
1542 1541 1541 1541 1540 1540 1540 1539 1539 1538 1536 1535 1534 1532 1531 1529 1527 1525 1524 1522 1520 1518 1516 1514 1512 1510 1507 1505 1503 1500 1497 1495 1492 1489 1486 1484 1481 1478 1475 1472 1469 1467 1464
1542 1542 1541 1541 1541 1541 1541 1540 1540 1539 1538 1537 1535 1534 1532 1531 1529 1528 1526 1524 1523 1521 1519 1517 1515 1513 1510 1508 1505 1503 1501 1498 1496 1493 1490 1487 1485 1482 1479 1476 1473 1470 1468
1543 1543 1542 1542 1542 1542 1542 1541 1541 1540 1539 1538 1537 1536 1535 1533 1532 1530 1529 1527 1525 1524 1522 1520 1518 1515 1513 1511 1508 1506 1504 1502 1499 1496 1494 1491 1489 1486 1483 1480 1477 1475 1472
1544 1543 1543 1543 1543 1543 1543 1542 1542 1541 1541 1540 1539 1538 1537 1536 1534 1533 1531 1530 1528 1526 1525 1522 1520 1518 1516 1514 1511 1509 1507 1505 1502 1500 1497 1495 1492 1490 1487 1484 1482 1479 1477